Location: Cahas Mountain Overlook
(37.0833°N, 80.1000°W)
Time: 10:12:07
(UTC-04:00)

First-Move - Visible Passes

Search period start: 21 March 2023 00:00
Search period end: 31 March 2023 00:00
Orbit: 564 x 644 km, 97.7° (Epoch: 20 March)

Date Brightness Start Highest point End Pass type
(mag) Time Alt. Az. Time Alt. Az. Time Alt. Az.
21 Mar ? 04:13:59 10° NE 04:15:04 15° NE 04:15:04 15° NE visible
21 Mar ? 05:49:48 10° NNW 05:51:55 20° NW 05:51:55 20° NW visible
22 Mar ? 04:26:06 10° NNE 04:27:45 21° NE 04:27:45 21° NE visible
22 Mar ? 06:02:44 10° NNW 06:04:36 16° NW 06:04:36 16° NW visible
23 Mar ? 04:38:18 10° NNE 04:40:25 27° NE 04:40:25 27° NE visible
23 Mar ? 06:15:59 10° NW 06:17:17 12° WNW 06:17:17 12° WNW visible
24 Mar ? 04:50:36 10° NNE 04:53:05 34° NNE 04:53:05 34° NNE visible
25 Mar ? 05:02:58 10° N 05:05:43 40° N 05:05:43 40° N visible
26 Mar ? 05:15:23 10° N 05:18:20 41° NNW 05:18:20 41° NNW visible
27 Mar ? 03:53:38 10° ENE 03:54:06 11° ENE 03:54:06 11° ENE visible
27 Mar ? 05:27:52 10° N 05:30:56 35° NW 05:30:56 35° NW visible
28 Mar ? 04:05:12 10° NE 04:06:40 16° ENE 04:06:40 16° ENE visible
28 Mar ? 05:40:26 10° NNW 05:43:31 27° WNW 05:43:31 27° WNW visible
29 Mar ? 04:17:03 10° NE 04:19:14 22° ENE 04:19:14 22° ENE visible
29 Mar ? 05:53:06 10° NNW 05:56:04 20° WNW 05:56:04 20° WNW visible
30 Mar ? 04:29:02 10° NNE 04:31:46 31° ENE 04:31:46 31° ENE visible
30 Mar ? 06:05:57 10° NNW 06:08:18 15° WNW 06:08:37 15° WNW visible
